Regional Weather Roundup
Issued by NWS Upton, NY

Current Version | Previous Version | Text Only | Print | Product List | Glossary Off
Versions: 1 2 3 4 5 6 7 8 9 10 11 12 13 14 15 16 17 18 19 20 21 22 23 24 25 26 27 28 29 30 31 32 33 34 35 36 37 38 39 40 41 42 43 44 45 46 47 48 49 50
326 ASUS41 KOKX 040108 RWROKX REGIONAL WEATHER ROUNDUP NATIONAL WEATHER SERVICE NEW YORK NY 800 PM EST SAT DEC 03 2016 NOTE: "FAIR" INDICATES FEW OR NO CLOUDS BELOW 12,000 FEET WITH NO SIGNIFICANT WEATHER AND/OR OBSTRUCTIONS TO VISIBILITY. NYZ071-072-176-178-NJZ106-104-040200- NEW YORK CITY METRO AREA CITY SKY/WX TMP DP RH WIND PRES REMARKS Central Park MOCLDY 43 27 53 NW9 30.13S Wall St Helipt MOCLDY 45 30 55 VRB5 30.12S Bronx Bot Gard NOT AVBL LaGuardia APRT PTCLDY 45 29 53 NW18 30.10F Kennedy INTL PTCLDY 44 26 49 NW23G30 30.10F Breezy Point N/A 43 N/A N/A NW14G23 N/A Newark/Liberty MOCLDY 45 27 49 NW15G25 30.11F Teterboro CLOUDY 43 27 53 NW12G22 30.10F $$ NYZ177-179-078>081-040200- LONG ISLAND NEW YORK CITY SKY/WX TMP DP RH WIND PRES REMARKS Jones Beach N/A 43 N/A N/A NW15G21 N/A Matinecock PT N/A 45 N/A N/A NW14G20 N/A Farmingdale CLEAR 42 29 59 NW7 30.09F MacArthur/ISP PTCLDY 42 27 55 NW12G22 30.08S Shirley CLOUDY 43 27 53 NW8 30.09S Westhampton MOCLDY 41 26 55 N9 30.09S Southampton NOT AVBL Bridgehampton NOT AVBL East Hampton N/A 40 25 55 N15G22 30.06F WCI 31 Montauk N/A 42 27 55 NW17G30 30.07S $$ NYZ052-065-067-040200- HUDSON VALLEY CITY SKY/WX TMP DP RH WIND PRES REMARKS White Plains CLEAR 39 28 64 NW8 30.08R WCI 33 Newburgh MOCLDY 39 28 65 NW12 30.10F WCI 32 Montgomery CLOUDY 40 29 64 W5 30.10S Poughkeepsie CLOUDY 38 26 62 NW6 30.09F WCI 33 Albany CLOUDY 36 25 64 NW10 30.13R WCI 28 $$ NJZ001-105-106-008-010-013-015-019>022-104-040200- NEW JERSEY CITY SKY/WX TMP DP RH WIND PRES REMARKS Newark/Liberty MOCLDY 45 27 49 NW15G25 30.11F Teterboro CLOUDY 43 27 53 NW12G22 30.10F Caldwell CLOUDY 43 28 55 NW9G17 30.12S Somerville CLOUDY 45 25 45 NW14 30.11S Linden CLOUDY 45 26 48 NW10G20 30.12S Sussex CLOUDY 41 30 65 VRB5 30.12F Andover N/A 41 27 57 VRB5 30.12S Trenton CLOUDY 45 26 47 NW9 30.14R Millville CLOUDY 45 33 63 W8 30.18R Atlantic City CLOUDY 45 28 51 W6 30.16R Wrightstown NOT AVBL Toms River CLOUDY 45 27 49 NW7 30.14R Belmar CLOUDY N/A N/A N/A NW16 30.13S $$ PAZ047>061-062-071-040200- EASTERN PENNSYLVANIA CITY SKY/WX TMP DP RH WIND PRES REMARKS Philadelphia CLOUDY 47 30 51 NW12 30.18R Allentown CLOUDY 44 28 53 N9 30.14S Scranton CLOUDY 40 27 59 NW6G18 30.14S $$ CTZ002-004>006-009-010-012-RIZ004-006-007-MAZ004-011-015-040200- SOUTHERN NEW ENGLAND IN CT CITY SKY/WX TMP DP RH WIND PRES REMARKS Bradley INTL MOCLDY 38 24 57 NW16G25 30.07S WCI 29 Hartford CLOUDY 40 25 55 NW10 30.09S WCI 33 Danbury CLOUDY 38 26 62 NW5 30.09R WCI 34 Wtrbury/Oxford CLOUDY 37 23 56 N12 30.08S WCI 30 Bridgeport CLOUDY 46 26 45 N6 30.09S Meriden CLOUDY 41 24 51 N13G22 30.09S New Haven MOCLDY 40 26 57 N10 30.09S WCI 33 Chester CLOUDY 39 23 52 NW16G30 30.06S WCI 30 Groton PTCLDY 43 25 49 NW17G23 30.06S Wilimantic CLOUDY 40 26 57 NW9 30.07R WCI 34 IN RI CITY SKY/WX TMP DP RH WIND PRES REMARKS Providence PTCLDY 40 23 50 NW12G22 30.05R WCI 33 Block Island PTCLDY 40 26 57 NW17G25 30.04S WCI 31 Westerly CLEAR 40 22 48 NW8 30.06R WCI 34 IN MA CITY SKY/WX TMP DP RH WIND PRES REMARKS Boston PTCLDY 38 25 59 W18 30.03S WCI 28 Worcester PTCLDY 32 20 61 NW12 30.02R WCI 23 Westfield CLOUDY 37 26 64 NW13 30.07S WCI 29 Provincetown PTCLDY 41 27 57 NW25G33 29.99R Nantucket MOCLDY 42 25 50 NW24G31 29.98R $$ ANZ330-335-338-340-345-350-353-355-040200- COASTAL MARINE OBSERVATIONS STATION/POSITION TIME SKY/WX TEMP WIND PRES VSBY WAVE AIR SEA DIR/SP/G HT/PER (UTC) (F) (DEG/KT/KT) (MB) (MI) (FT/S) NY HARB ENTRANCE 0050 47 55 330/ 23/ 29 1018.8 4/ 4 20 S FIRE ISLAND 0050 46 53 330/ 23/ 31 1018.4 5/ 6 GREAT SOUTH BAY 0030 44 44 N/A 23 SSW MONTAUK P 2350 45 56 320/ 23/ 31 1017.6 5/ 6 15 E BARNEGAT LI 0030 54 N/A 5/ 6 HUDSON CANYON 2350 49 58 1017.4 10/ 7 KINGS POINT 0024 44 48 1019.5 EXECUTION ROCKS 0045 44 300/ 12/ 17 N/A CENTRAL LI SOUND 0000 43 51 330/ 17/ 19 N/A 3/ 4 EASTERN LI SOUND NOT AVBL ROBBINS REEF 0024 45 330/ 14/ 20 1019.9 $$ >>>>>>>>>>>>>>>>>>>>>>>>>>>> KEY <<<<<<<<<<<<<<<<<<<<<<<<<<< > < > SKY/WX - Sky Condition/Present Weather < > TMP - Temperature in Fahrenheit < > DP - Dew Point in Fahrenheit < > RH - Relative Humidity in Percent < > WIND - Direction (from) and Speed in MPH < > PRES - Mean Sea Level Pressure (inches of Hg) < > WCI - Wind Chill Index < > VSB - VISIBILITY IN MILES < > HX - HEAT INDEX < > TC - TEMPERATURE IN CELSIUS < > VRB - VARIABLE WIND DIRECTION < > < >>>>>>>>>>>>>>>>>>>>>>>>>>>> KEY <<<<<<<<<<<<<<<<<<<<<<<<<<<

USA.gov is the U.S. government's official web portal to all federal, state and local government web resources and services.